TAM3305 SBNF-SBGR

Flight info

Callsign TAM3305
Flight time 0h 58m
Altitude 33000
Route ENSUG DCT UMDOR UZ69 XONUG UZ121 BUXUK
Aircraft A320/M-SDE3FGHIRWY/LB1

Departure

Time 2026-04-23 21:32
Airport Ministro Victor Konder International Airport (SBNF)

Arrival

Time 2026-04-23 22:31
Airport São Paulo/Guarulhos–Governor André Franco Montoro International Airport (SBGR)
Time Latitude Longitude Altitude Speed Heading
2026-04-23 21:07 -26.88022 -48.64943 29 ft 0 kts 145°
2026-04-23 21:26 -26.88015 -48.64949 29 ft 4 kts 147°
2026-04-23 21:26 -26.87998 -48.64962 29 ft 4 kts 132°
2026-04-23 21:27 -26.87991 -48.64984 29 ft 4 kts 65°
2026-04-23 21:27 -26.88005 -48.65009 29 ft 3 kts 56°
2026-04-23 21:27 -26.88007 -48.65012 29 ft 1 kts 56°
2026-04-23 21:28 -26.88006 -48.65011 29 ft 2 kts 56°
2026-04-23 21:29 -26.87977 -48.64973 29 ft 10 kts 24°
2026-04-23 21:29 -26.87920 -48.65004 30 ft 7 kts 311°
2026-04-23 21:29 -26.87920 -48.65060 29 ft 8 kts 246°
2026-04-23 21:29 -26.87957 -48.65123 28 ft 11 kts 236°
2026-04-23 21:30 -26.88006 -48.65205 28 ft 14 kts 236°
2026-04-23 21:30 -26.88064 -48.65299 29 ft 16 kts 235°
2026-04-23 21:30 -26.88134 -48.65418 29 ft 20 kts 237°
2026-04-23 21:30 -26.88218 -48.65548 30 ft 20 kts 235°
2026-04-23 21:31 -26.88293 -48.65676 30 ft 19 kts 242°
2026-04-23 21:31 -26.88340 -48.65783 30 ft 9 kts 233°
2026-04-23 21:31 -26.88352 -48.65762 30 ft 5 kts 66°
2026-04-23 21:31 -26.88340 -48.65748 30 ft 0 kts 53°
2026-04-23 21:32 -26.88288 -48.65668 30 ft 44 kts 56°
2026-04-23 21:32 -26.87971 -48.65145 29 ft 114 kts 56°
2026-04-23 21:32 -26.87429 -48.64247 158 ft 152 kts 57°
2026-04-23 21:32 -26.86862 -48.63296 871 ft 148 kts 55°
2026-04-23 21:33 -26.86278 -48.62326 1372 ft 156 kts 56°
2026-04-23 21:33 -26.85627 -48.61253 1683 ft 176 kts 56°
2026-04-23 21:33 -26.84880 -48.60054 1988 ft 201 kts 55°
2026-04-23 21:33 -26.84011 -48.58672 2322 ft 229 kts 54°
2026-04-23 21:34 -26.82952 -48.57305 3121 ft 233 kts 34°
2026-04-23 21:34 -26.81400 -48.56772 3919 ft 242 kts 358°
2026-04-23 21:34 -26.79774 -48.57316 4716 ft 250 kts 334°
2026-04-23 21:34 -26.78257 -48.58320 5523 ft 255 kts 328°
2026-04-23 21:35 -26.76801 -48.59468 6377 ft 258 kts 324°
2026-04-23 21:35 -26.75368 -48.60685 7197 ft 260 kts 324°
2026-04-23 21:35 -26.73902 -48.61834 8002 ft 262 kts 330°
2026-04-23 21:35 -26.72287 -48.62812 8804 ft 266 kts 334°
2026-04-23 21:36 -26.68911 -48.64593 10404 ft 272 kts 335°
2026-04-23 21:36 -26.67193 -48.65495 11135 ft 274 kts 335°
2026-04-23 21:36 -26.65468 -48.66426 11875 ft 277 kts 334°
2026-04-23 21:37 -26.63722 -48.67342 12638 ft 277 kts 340°
2026-04-23 21:37 -26.61822 -48.67870 13080 ft 292 kts 352°
2026-04-23 21:37 -26.59728 -48.68183 13281 ft 315 kts 353°
2026-04-23 21:37 -26.57475 -48.68511 13453 ft 337 kts 353°
2026-04-23 21:38 -26.55112 -48.68852 13968 ft 346 kts 353°
2026-04-23 21:38 -26.52708 -48.69202 14553 ft 350 kts 352°
2026-04-23 21:38 -26.50283 -48.69562 15179 ft 353 kts 352°
2026-04-23 21:38 -26.47833 -48.69930 15783 ft 357 kts 352°
2026-04-23 21:39 -26.45365 -48.70302 16402 ft 359 kts 351°
2026-04-23 21:39 -26.42878 -48.70674 17021 ft 362 kts 351°
2026-04-23 21:39 -26.41220 -48.70921 17430 ft 364 kts 351°
2026-04-23 21:39 -26.37844 -48.71423 18234 ft 368 kts 351°
2026-04-23 21:40 -26.36162 -48.71675 18593 ft 370 kts 351°
2026-04-23 21:40 -26.32732 -48.72190 19256 ft 374 kts 350°
2026-04-23 21:40 -26.30140 -48.72578 19746 ft 378 kts 350°
2026-04-23 21:40 -26.28411 -48.72836 20077 ft 380 kts 350°
2026-04-23 21:41 -26.25781 -48.73227 20574 ft 383 kts 349°
2026-04-23 21:41 -26.23125 -48.73624 21066 ft 387 kts 349°
2026-04-23 21:41 -26.20444 -48.74027 21570 ft 390 kts 349°
2026-04-23 21:41 -26.17740 -48.74432 22070 ft 394 kts 349°
2026-04-23 21:42 -26.14080 -48.74966 22723 ft 400 kts 351°
2026-04-23 21:42 -26.12226 -48.75039 23019 ft 406 kts 358°
2026-04-23 21:42 -26.09401 -48.74624 23530 ft 415 kts 10°
2026-04-23 21:42 -26.06603 -48.73742 23937 ft 420 kts 12°
2026-04-23 21:43 -26.03791 -48.72832 24342 ft 422 kts 12°
2026-04-23 21:43 -26.00960 -48.71924 24741 ft 425 kts 11°
2026-04-23 21:43 -25.98113 -48.71016 25143 ft 427 kts 11°
2026-04-23 21:43 -25.95250 -48.70105 25522 ft 429 kts 11°
2026-04-23 21:44 -25.92373 -48.69193 25911 ft 431 kts 11°
2026-04-23 21:44 -25.89482 -48.68279 26284 ft 433 kts 11°
2026-04-23 21:44 -25.86579 -48.67361 26667 ft 435 kts 11°
2026-04-23 21:44 -25.83663 -48.66437 27022 ft 437 kts 11°
2026-04-23 21:45 -25.80734 -48.65504 27374 ft 439 kts 11°
2026-04-23 21:45 -25.77790 -48.64562 27691 ft 442 kts 10°
2026-04-23 21:45 -25.74826 -48.63612 28027 ft 445 kts 10°
2026-04-23 21:45 -25.71847 -48.62660 28360 ft 447 kts 10°
2026-04-23 21:46 -25.68852 -48.61706 28663 ft 449 kts 10°
2026-04-23 21:46 -25.65841 -48.60754 28980 ft 451 kts 10°
2026-04-23 21:46 -25.62816 -48.59802 29226 ft 453 kts 10°
2026-04-23 21:46 -25.59775 -48.58843 29527 ft 456 kts 10°
2026-04-23 21:47 -25.56720 -48.57877 29824 ft 458 kts 10°
2026-04-23 21:47 -25.53648 -48.56903 30124 ft 460 kts 10°
2026-04-23 21:47 -25.50565 -48.55925 30352 ft 462 kts
2026-04-23 21:47 -25.47463 -48.54944 30581 ft 465 kts
2026-04-23 21:48 -25.44349 -48.53959 30816 ft 467 kts
2026-04-23 21:48 -25.41260 -48.52986 31031 ft 468 kts
2026-04-23 21:48 -25.38120 -48.51999 31244 ft 470 kts 10°
2026-04-23 21:48 -25.34966 -48.51009 31410 ft 473 kts 10°
2026-04-23 21:49 -25.31790 -48.50011 31607 ft 475 kts 10°
2026-04-23 21:49 -25.28612 -48.49006 31910 ft 475 kts 10°
2026-04-23 21:49 -25.25437 -48.47999 32236 ft 474 kts 10°
2026-04-23 21:49 -25.22267 -48.46996 32555 ft 474 kts 10°
2026-04-23 21:50 -25.19096 -48.45995 32869 ft 474 kts 10°
2026-04-23 21:50 -25.15925 -48.44998 33097 ft 474 kts 10°
2026-04-23 21:50 -25.12782 -48.44008 33146 ft 463 kts 10°
2026-04-23 21:51 -25.06696 -48.41947 33147 ft 455 kts 12°
2026-04-23 21:51 -25.00701 -48.39723 33153 ft 454 kts 13°
2026-04-23 21:52 -24.94714 -48.37488 33151 ft 454 kts 13°
2026-04-23 21:52 -24.88720 -48.35309 33150 ft 453 kts 12°
2026-04-23 21:53 -24.82722 -48.33152 33132 ft 453 kts 12°
2026-04-23 21:53 -24.76728 -48.30996 33137 ft 454 kts 12°
2026-04-23 21:54 -24.70733 -48.28830 33137 ft 453 kts 12°
2026-04-23 21:54 -24.64746 -48.26671 33136 ft 453 kts 12°
2026-04-23 21:55 -24.58761 -48.24519 33132 ft 452 kts 12°
2026-04-23 21:55 -24.52779 -48.22369 33117 ft 452 kts 12°
2026-04-23 21:56 -24.46842 -48.20240 33119 ft 452 kts 12°
2026-04-23 21:56 -24.40859 -48.18091 33123 ft 452 kts 13°
2026-04-23 21:57 -24.34896 -48.15867 33116 ft 456 kts 18°
2026-04-23 21:57 -24.29236 -48.12632 33115 ft 459 kts 23°
2026-04-23 21:58 -24.23612 -48.09304 33117 ft 460 kts 23°
2026-04-23 21:58 -24.17982 -48.05985 33121 ft 460 kts 23°
2026-04-23 21:59 -24.12345 -48.02672 33124 ft 460 kts 23°
2026-04-23 21:59 -24.06706 -47.99356 33118 ft 460 kts 23°
2026-04-23 22:00 -23.98241 -47.94387 33111 ft 461 kts 24°
2026-04-23 22:00 -23.92580 -47.91067 33139 ft 467 kts 24°
2026-04-23 22:01 -23.86746 -47.87661 33135 ft 481 kts 24°
2026-04-23 22:01 -23.80823 -47.84195 33136 ft 484 kts 24°
2026-04-23 22:02 -23.75127 -47.80243 33130 ft 492 kts 39°
2026-04-23 22:02 -23.70212 -47.75087 33128 ft 494 kts 41°
2026-04-23 22:03 -23.65270 -47.69884 33131 ft 493 kts 41°
2026-04-23 22:03 -23.60330 -47.64691 33120 ft 493 kts 41°
2026-04-23 22:04 -23.55454 -47.59562 32200 ft 479 kts 40°
2026-04-23 22:04 -23.53062 -47.57049 31174 ft 476 kts 40°
2026-04-23 22:04 -23.50691 -47.54561 30269 ft 470 kts 39°
2026-04-23 22:05 -23.48348 -47.52107 29279 ft 464 kts 40°
2026-04-23 22:05 -23.46042 -47.49694 28370 ft 456 kts 40°
2026-04-23 22:05 -23.43775 -47.47321 27509 ft 448 kts 40°
2026-04-23 22:05 -23.41548 -47.44988 26678 ft 440 kts 40°
2026-04-23 22:06 -23.39360 -47.42697 25868 ft 433 kts 40°
2026-04-23 22:06 -23.37209 -47.40444 25090 ft 426 kts 41°
2026-04-23 22:06 -23.35093 -47.38227 24341 ft 419 kts 41°
2026-04-23 22:06 -23.33010 -47.36048 23611 ft 412 kts 41°
2026-04-23 22:07 -23.30985 -47.33934 23228 ft 393 kts 41°
2026-04-23 22:07 -23.29040 -47.31904 23073 ft 383 kts 41°
2026-04-23 22:07 -23.27122 -47.29903 23101 ft 382 kts 41°
2026-04-23 22:07 -23.25206 -47.27905 23102 ft 381 kts 41°
2026-04-23 22:08 -23.23290 -47.25912 23102 ft 381 kts 41°
2026-04-23 22:08 -23.21373 -47.23921 23103 ft 381 kts 41°
2026-04-23 22:08 -23.19458 -47.21926 22864 ft 382 kts 41°
2026-04-23 22:08 -23.17521 -47.19909 21709 ft 388 kts 42°
2026-04-23 22:09 -23.15574 -47.17882 20843 ft 386 kts 43°
2026-04-23 22:09 -23.13665 -47.15865 20061 ft 380 kts 45°
2026-04-23 22:09 -23.11868 -47.13827 19700 ft 363 kts 47°
2026-04-23 22:09 -23.10189 -47.11834 19550 ft 354 kts 47°
2026-04-23 22:10 -23.08556 -47.09858 19338 ft 349 kts 48°
2026-04-23 22:10 -23.06942 -47.07903 19110 ft 346 kts 48°
2026-04-23 22:10 -23.05319 -47.05953 18606 ft 350 kts 48°
2026-04-23 22:10 -23.03711 -47.03950 17872 ft 356 kts 56°
2026-04-23 22:11 -23.02651 -47.01523 17286 ft 354 kts 75°
2026-04-23 22:11 -23.02362 -46.98917 16586 ft 346 kts 94°
2026-04-23 22:11 -23.02887 -46.96397 15852 ft 342 kts 113°
2026-04-23 22:11 -23.04137 -46.94232 15112 ft 339 kts 132°
2026-04-23 22:12 -23.05915 -46.92674 14707 ft 330 kts 148°
2026-04-23 22:12 -23.07916 -46.91461 14344 ft 329 kts 149°
2026-04-23 22:12 -23.09911 -46.90258 13983 ft 327 kts 149°
2026-04-23 22:12 -23.11898 -46.89062 13599 ft 325 kts 149°
2026-04-23 22:13 -23.13869 -46.87878 13242 ft 322 kts 149°
2026-04-23 22:13 -23.15821 -46.86706 12878 ft 319 kts 149°
2026-04-23 22:13 -23.17755 -46.85540 12528 ft 317 kts 149°
2026-04-23 22:13 -23.19675 -46.84381 12177 ft 314 kts 149°
2026-04-23 22:14 -23.21577 -46.83235 11827 ft 312 kts 149°
2026-04-23 22:14 -23.23465 -46.82098 11466 ft 309 kts 149°
2026-04-23 22:14 -23.25339 -46.80969 11116 ft 306 kts 148°
2026-04-23 22:14 -23.27193 -46.79851 10759 ft 304 kts 149°
2026-04-23 22:15 -23.29035 -46.78739 10403 ft 302 kts 149°
2026-04-23 22:15 -23.30863 -46.77638 10045 ft 299 kts 149°
2026-04-23 22:15 -23.32677 -46.76544 9651 ft 297 kts 149°
2026-04-23 22:15 -23.34475 -46.75461 9289 ft 294 kts 149°
2026-04-23 22:16 -23.36253 -46.74389 8927 ft 291 kts 149°
2026-04-23 22:16 -23.38017 -46.73321 8564 ft 289 kts 148°
2026-04-23 22:16 -23.39764 -46.72265 8196 ft 286 kts 148°
2026-04-23 22:16 -23.41500 -46.71216 7796 ft 284 kts 149°
2026-04-23 22:17 -23.43033 -46.69897 7404 ft 280 kts 130°
2026-04-23 22:17 -23.44167 -46.68183 6971 ft 280 kts 122°
2026-04-23 22:17 -23.45266 -46.66420 6523 ft 282 kts 123°
2026-04-23 22:17 -23.46362 -46.64654 6031 ft 278 kts 120°
2026-04-23 22:18 -23.47009 -46.62751 5581 ft 263 kts 94°
2026-04-23 22:18 -23.46804 -46.60845 5159 ft 249 kts 73°
2026-04-23 22:18 -23.46325 -46.59068 4726 ft 240 kts 73°
2026-04-23 22:18 -23.45858 -46.57355 4217 ft 227 kts 75°
2026-04-23 22:19 -23.45431 -46.55781 3887 ft 207 kts 76°
2026-04-23 22:19 -23.45048 -46.54362 3670 ft 188 kts 77°
2026-04-23 22:19 -23.44693 -46.53049 3443 ft 174 kts 77°
2026-04-23 22:19 -23.44336 -46.51742 4083 ft 190 kts 76°
2026-04-23 22:20 -23.43965 -46.50272 4835 ft 210 kts 76°
2026-04-23 22:20 -23.43617 -46.48705 5633 ft 216 kts 76°
2026-04-23 22:20 -23.43290 -46.47062 6051 ft 225 kts 77°
2026-04-23 22:20 -23.42898 -46.45437 6148 ft 223 kts 60°
2026-04-23 22:21 -23.41805 -46.44322 6169 ft 220 kts 19°
2026-04-23 22:21 -23.40306 -46.44305 6173 ft 223 kts 338°
2026-04-23 22:21 -23.39098 -46.45364 6171 ft 228 kts 310°
2026-04-23 22:21 -23.38204 -46.46803 6173 ft 231 kts 300°
2026-04-23 22:22 -23.37637 -46.48433 6170 ft 233 kts 280°
2026-04-23 22:22 -23.37728 -46.50299 6185 ft 268 kts 256°
2026-04-23 22:22 -23.38262 -46.52300 6166 ft 281 kts 256°
2026-04-23 22:22 -23.38783 -46.54367 6169 ft 284 kts 257°
2026-04-23 22:23 -23.39288 -46.56450 6174 ft 286 kts 257°
2026-04-23 22:23 -23.39786 -46.58546 6169 ft 285 kts 256°
2026-04-23 22:23 -23.40285 -46.60621 6168 ft 280 kts 256°
2026-04-23 22:23 -23.40768 -46.62605 6164 ft 262 kts 256°
2026-04-23 22:24 -23.41221 -46.64454 6167 ft 244 kts 256°
2026-04-23 22:24 -23.41650 -46.66206 6175 ft 238 kts 256°
2026-04-23 22:24 -23.42077 -46.67944 6168 ft 237 kts 256°
2026-04-23 22:24 -23.42499 -46.69673 6145 ft 237 kts 256°
2026-04-23 22:25 -23.42952 -46.71408 5910 ft 237 kts 248°
2026-04-23 22:25 -23.43965 -46.72721 5757 ft 224 kts 205°
2026-04-23 22:25 -23.45421 -46.72935 5690 ft 211 kts 159°
2026-04-23 22:25 -23.46535 -46.72031 5644 ft 200 kts 114°
2026-04-23 22:26 -23.46832 -46.70582 5607 ft 198 kts 88°
2026-04-23 22:26 -23.46508 -46.69147 5550 ft 197 kts 62°
2026-04-23 22:26 -23.45865 -46.67816 5498 ft 199 kts 70°
2026-04-23 22:26 -23.45699 -46.66337 5444 ft 199 kts 97°
2026-04-23 22:27 -23.46169 -46.64930 5387 ft 200 kts 121°
2026-04-23 22:27 -23.46888 -46.63629 5329 ft 203 kts 107°
2026-04-23 22:27 -23.47092 -46.62146 5129 ft 197 kts 83°
2026-04-23 22:27 -23.46767 -46.60707 4950 ft 192 kts 71°
2026-04-23 22:28 -23.46393 -46.59344 4588 ft 184 kts 74°
2026-04-23 22:28 -23.46158 -46.58475 4393 ft 177 kts 75°
2026-04-23 22:28 -23.45825 -46.57240 4149 ft 163 kts 75°
2026-04-23 22:28 -23.45418 -46.55727 3863 ft 149 kts 76°
2026-04-23 22:29 -23.45226 -46.55014 3764 ft 148 kts 79°
2026-04-23 22:29 -23.44936 -46.53935 3570 ft 148 kts 78°
2026-04-23 22:29 -23.44650 -46.52867 3346 ft 145 kts 79°
2026-04-23 22:29 -23.44269 -46.51468 3036 ft 146 kts 76°
2026-04-23 22:30 -23.43982 -46.50389 2841 ft 149 kts 74°
2026-04-23 22:30 -23.43686 -46.49316 2666 ft 147 kts 77°
2026-04-23 22:30 -23.43492 -46.48596 2536 ft 147 kts 77°
2026-04-23 22:30 -23.43219 -46.47560 2461 ft 130 kts 74°
2026-04-23 22:31 -23.43011 -46.46791 2466 ft 72 kts 73°
2026-04-23 22:31 -23.42950 -46.46563 2471 ft 8 kts 73°
2026-04-23 22:31 -23.42921 -46.46457 2471 ft 23 kts 73°
2026-04-23 22:31 -23.42867 -46.46258 2464 ft 25 kts 73°
2026-04-23 22:32 -23.42751 -46.46203 2468 ft 20 kts 345°
2026-04-23 22:32 -23.42644 -46.46235 2465 ft 15 kts 344°
2026-04-23 22:32 -23.42625 -46.46320 2464 ft 13 kts 253°
2026-04-23 22:32 -23.42651 -46.46412 2463 ft 12 kts 253°
2026-04-23 22:33 -23.42674 -46.46496 2462 ft 11 kts 253°
2026-04-23 22:33 -23.42693 -46.46567 2461 ft 9 kts 253°
2026-04-23 22:33 -23.42711 -46.46633 2465 ft 13 kts 254°
2026-04-23 22:33 -23.42741 -46.46760 2467 ft 21 kts 253°
2026-04-23 22:34 -23.42788 -46.46918 2468 ft 22 kts 252°
2026-04-23 22:34 -23.42832 -46.47080 2466 ft 23 kts 254°
2026-04-23 22:34 -23.42874 -46.47244 2464 ft 21 kts 255°
2026-04-23 22:34 -23.42916 -46.47396 2465 ft 21 kts 253°
2026-04-23 22:35 -23.42958 -46.47554 2465 ft 23 kts 254°
2026-04-23 22:35 -23.43004 -46.47717 2466 ft 21 kts 253°
2026-04-23 22:35 -23.42996 -46.47819 2465 ft 5 kts 348°
2026-04-23 22:35 -23.42939 -46.47826 2465 ft 14 kts 351°
2026-04-23 22:36 -23.42847 -46.47865 2465 ft 14 kts 326°
2026-04-23 22:36 -23.42836 -46.47948 2465 ft 10 kts 263°
2026-04-23 22:36 -23.42836 -46.47956 2465 ft 0 kts 265°
2026-04-23 22:41 -23.42836 -46.47955 2465 ft 0 kts 265°
2026-04-23 23:03 -23.42836 -46.47954 2465 ft 0 kts 265°